LZ3VG-2 Weather Reports


time (UTC)temp
C
wind
direction
speed
KPH
gust
KPH
rain 1hr
cm
rain 24hr
cm
rain mn
cm
humidity
%
barometer
mb
20260507143526 14 142 16.1 29.0 0.00 0.00 0.00 85 1016.4
20260507142522 14 137 14.5 29.0 0.00 0.00 0.00 84 1016.5
20260507141520 14 143 14.5 29.0 0.00 0.00 0.00 84 1016.4
20260507140517 15 154 14.5 24.1 0.00 0.00 0.00 84 1016.5
20260507135534 15 136 11.3 25.7 0.00 0.00 0.00 83 1016.5
20260507134551 14 141 14.5 27.4 0.00 0.00 0.00 83 1016.5
20260507133528 14 160 14.5 29.0 0.00 0.00 0.00 84 1016.5
20260507132525 14 157 16.1 30.6 0.00 0.00 0.00 84 1016.4
20260507131522 14 130 16.1 24.1 0.00 0.00 0.00 83 1016.5
20260507130518 14 127 16.1 29.0 0.00 0.00 0.00 84 1016.6
20260507125556 14 140 16.1 29.0 0.00 0.00 0.00 85 1016.8
20260507124533 13 123 14.5 25.7 0.00 0.00 0.00 86 1016.8
20260507123529 13 121 19.3 30.6 0.00 0.00 0.00 86 1016.8
20260507122527 13 114 17.7 30.6 0.00 0.00 0.00 85 1017.0
20260507121524 14 111 14.5 24.1 0.00 0.00 0.00 84 1017.0
20260507120521 13 125 14.5 27.4 0.00 0.00 0.00 85 1017.1
20260507115537 14 148 16.1 27.4 0.00 0.00 0.00 84 1017.3
20260507114554 14 135 14.5 24.1 0.00 0.00 0.00 84 1017.3
20260507113531 14 138 17.7 27.4 0.00 0.00 0.00 84 1017.2
20260507112528 14 129 17.7 30.6 0.00 0.00 0.00 83 1017.3
20260507111524 14 144 14.5 27.4 0.00 0.00 0.00 82 1017.3
20260507110521 14 122 16.1 27.4 0.00 0.00 0.00 83 1017.4
20260507105518 14 139 16.1 27.4 0.00 0.00 0.00 82 1017.4
20260507104516 13 119 14.5 30.6 0.00 0.00 0.00 82 1017.3
20260507103533 13 137 16.1 30.6 0.00 0.00 0.00 82 1017.4
20260507102530 14 131 16.1 30.6 0.00 0.00 0.00 81 1017.6
20260507101527 13 126 14.5 27.4 0.00 0.00 0.00 82 1017.6
20260507100524 13 124 16.1 27.4 0.00 0.00 0.00 81 1017.6
20260507095521 14 139 14.5 25.7 0.00 0.00 0.00 81 1017.5
20260507094518 13 135 17.7 27.4 0.00 0.00 0.00 81 1017.7
20260507093536 14 155 16.1 33.8 0.00 0.00 0.00 81 1017.7
20260507092532 13 133 14.5 22.5 0.00 0.00 0.00 84 1017.6
20260507091529 13 140 16.1 30.6 0.00 0.00 0.00 84 1017.6
20260507090527 13 138 17.7 33.8 0.00 0.00 0.00 85 1017.7
20260507085523 13 140 16.1 27.4 0.00 0.00 0.00 84 1017.7
20260507084541 12 141 14.5 29.0 0.00 0.00 0.00 85 1017.6
20260507083518 13 139 16.1 25.7 0.00 0.00 0.00 84 1017.6
20260507082535 13 162 17.7 29.0 0.00 0.00 0.00 85 1017.6
20260507081532 12 143 16.1 27.4 0.00 0.00 0.00 85 1017.6
20260507080529 12 148 14.5 29.0 0.00 0.00 0.00 82 1017.5
20260507075526 13 163 16.1 25.7 0.00 0.00 0.00 83 1017.7
20260507074543 12 156 12.9 20.9 0.00 0.00 0.00 82 1017.8
20260507073520 13 170 14.5 20.9 0.00 0.00 0.00 81 1017.8
20260507072517 13 161 16.1 24.1 0.00 0.00 0.00 82 1017.7
20260507071534 14 164 16.1 24.1 0.00 0.00 0.00 76 1017.7
20260507070531 13 171 14.5 19.3 0.00 0.00 0.00 81 1017.9
20260507065528 12 158 17.7 22.5 0.00 0.00 0.00 86 1017.9
20260507064525 12 179 16.1 19.3 0.00 0.00 0.00 96 1017.8
20260507063542 11 174 16.1 20.9 0.00 0.00 0.00 99 1017.7
20260507062519 11 187 17.7 20.9 0.00 0.00 0.00 99 1017.9
20260507061516 10 191 17.7 22.5 0.00 0.00 0.00 99 1017.9
20260507060534 10 183 20.9 24.1 0.00 0.00 0.00 99 1017.9
20260507055550 10 181 17.7 20.9 0.00 0.00 0.00 99 1017.8
20260507054527 10 181 16.1 19.3 0.00 0.00 0.00 99 1017.9
20260507053524 9 183 17.7 20.9 0.00 0.00 0.00 99 1017.8
20260507052541 8 179 17.7 20.9 0.00 0.00 0.00 99 1017.7
20260507051519 8 181 16.1 17.7 0.00 0.00 0.00 99 1017.6
20260507050536 8 189 17.7 20.9 0.00 0.00 0.00 99 1017.6
20260507045533 8 189 17.7 20.9 0.00 0.00 0.00 99 1017.5
20260507044530 8 192 17.7 20.9 0.00 0.00 0.00 99 1017.5
20260507043526 8 189 17.7 20.9 0.00 0.00 0.00 99 1017.3
20260507042523 8 188 17.7 20.9 0.00 0.00 0.00 99 1017.4
20260507041521 8 185 17.7 25.7 0.00 0.00 0.00 99 1017.3
20260507040537 7 191 19.3 25.7 0.00 0.00 0.00 99 1017.2
20260507035534 7 192 17.7 22.5 0.00 0.00 0.00 99 1017.0
20260507034532 7 185 17.7 20.9 0.00 0.00 0.00 99 1016.7
20260507033529 7 185 16.1 20.9 0.00 0.00 0.00 99 1016.7
20260507032526 7 185 16.1 20.9 0.00 0.00 0.00 99 1016.7
20260507031523 7 190 16.1 20.9 0.00 0.00 0.00 99 1016.9
20260507030520 7 189 17.7 20.9 0.00 0.00 0.00 99 1016.8
20260507025537 7 182 16.1 22.5 0.00 0.00 0.00 99 1016.6
20260507024554 7 187 19.3 24.1 0.00 0.00 0.00 99 1016.6
20260507023530 7 192 17.7 22.5 0.00 0.00 0.00 99 1016.6
20260507022528 7 190 19.3 22.5 0.00 0.00 0.00 99 1016.6
20260507021525 7 185 19.3 22.5 0.00 0.00 0.00 99 1016.6
20260507020521 7 192 22.5 27.4 0.00 0.00 0.00 99 1016.5
20260507015538 7 193 17.7 22.5 0.00 0.00 0.00 99 1016.3
20260507014536 7 193 19.3 22.5 0.00 0.00 0.00 99 1016.3
20260507013533 7 188 17.7 20.9 0.00 0.00 0.00 98 1016.3
20260507012530 7 186 16.1 19.3 0.00 0.00 0.00 98 1016.1
20260507011526 7 182 19.3 22.5 0.00 0.00 0.00 98 1016.0
20260507010544 8 182 17.7 22.5 0.00 0.00 0.00 98 1016.1
20260507005521 8 180 17.7 22.5 0.00 0.00 0.00 98 1016.2
20260507004518 8 186 16.1 17.7 0.00 0.00 0.00 97 1016.3
20260507003555 8 188 16.1 17.7 0.00 0.00 0.00 97 1016.2
20260507002531 8 183 16.1 17.7 0.00 0.00 0.00 96 1016.1
20260507001529 8 191 19.3 20.9 0.00 0.00 0.00 96 1016.1
20260507000546 8 190 17.7 20.9 0.00 0.00 0.00 95 1016.2
20260506235543 8 192 17.7 20.9 0.00 0.00 0.00 94 1016.1
20260506234539 8 189 16.1 19.3 0.00 0.00 0.00 93 1016.1
20260506233516 9 185 16.1 19.3 0.00 0.00 0.00 91 1016.2
20260506232534 10 180 16.1 19.3 0.00 0.00 0.00 90 1016.3
20260506231531 10 178 16.1 20.9 0.00 0.00 0.00 88 1016.2
20260506230528 10 174 16.1 19.3 0.00 0.00 0.00 87 1016.1
20260506225525 10 176 16.1 20.9 0.00 0.00 0.00 88 1016.1
20260506224522 10 178 17.7 19.3 0.00 0.00 0.00 92 1016.4
20260506223519 10 177 14.5 16.1 0.00 0.00 0.00 92 1016.4
20260506222536 11 167 16.1 19.3 0.00 0.00 0.00 92 1016.3
20260506221533 11 168 16.1 20.9 0.00 0.00 0.00 92 1016.5
20260506220551 11 161 14.5 20.9 0.00 0.00 0.00 91 1016.5
20260506215527 11 171 14.5 17.7 0.00 0.00 0.00 92 1016.7
20260506214524 11 159 14.5 19.3 0.00 0.00 0.00 92 1016.7
20260506213521 11 154 14.5 19.3 0.00 0.00 0.00 92 1016.6
20260506212539 11 163 14.5 19.3 0.00 0.00 0.00 92 1016.5
20260506211515 11 162 14.5 20.9 0.00 0.00 0.00 92 1016.5
20260506210533 11 148 14.5 24.1 0.00 0.00 0.00 92 1016.4
20260506205550 11 162 12.9 20.9 0.00 0.00 0.00 92 1016.5
20260506204526 11 158 16.1 22.5 0.00 0.00 0.00 92 1016.6
20260506203523 11 163 12.9 20.9 0.00 0.00 0.00 92 1016.3
20260506202520 11 164 12.9 20.9 0.00 0.00 0.00 91 1016.3
20260506201517 11 165 12.9 20.9 0.00 0.00 0.00 91 1016.4
20260506200534 11 163 14.5 17.7 0.00 0.00 0.00 90 1016.4
20260506195531 11 163 14.5 20.9 0.00 0.00 0.00 89 1016.4
20260506194528 11 161 14.5 20.9 0.00 0.00 0.00 89 1016.4
20260506193525 11 165 14.5 20.9 0.00 0.00 0.00 89 1016.3
20260506192522 11 160 14.5 20.9 0.00 0.00 0.00 89 1016.3
20260506191519 11 169 14.5 17.7 0.00 0.00 0.00 89 1016.3
20260506190516 11 155 14.5 20.9 0.00 0.00 0.00 89 1016.2
20260506185553 11 164 14.5 24.1 0.00 0.00 0.00 89 1016.2
20260506184530 11 154 12.9 19.3 0.00 0.00 0.00 90 1016.1
20260506183527 12 146 16.1 24.1 0.00 0.00 0.00 90 1016.0
20260506182524 12 150 12.9 22.5 0.00 0.00 0.00 90 1016.0
20260506181521 12 151 14.5 20.9 0.00 0.00 0.00 90 1015.8
20260506180518 12 161 12.9 19.3 0.00 0.00 0.00 90 1015.8
20260506175535 12 154 14.5 24.1 0.00 0.00 0.00 89 1015.8
20260506174552 12 147 14.5 24.1 0.00 0.00 0.00 89 1015.6
20260506173529 12 146 14.5 22.5 0.00 0.00 0.00 88 1015.6
20260506172527 12 155 14.5 24.1 0.00 0.00 0.00 88 1015.5
20260506171523 12 145 14.5 24.1 0.00 0.00 0.00 88 1015.5
20260506170600 12 138 14.5 24.1 0.00 0.00 0.00 87 1015.4
20260506165517 12 147 12.9 20.9 0.00 0.00 0.00 86 1015.2
20260506164534 13 142 16.1 24.1 0.00 0.00 0.00 84 1015.2
20260506163531 13 140 17.7 24.1 0.00 0.00 0.00 83 1015.3
20260506162528 13 157 14.5 20.9 0.00 0.00 0.00 81 1015.3
20260506161525 13 133 16.1 22.5 0.00 0.00 0.00 81 1015.2
20260506160522 13 137 16.1 24.1 0.00 0.00 0.00 80 1015.3
20260506155518 13 136 16.1 25.7 0.00 0.00 0.00 80 1015.3
20260506154536 14 147 14.5 24.1 0.00 0.00 0.00 78 1015.1
20260506153553 14 165 16.1 25.7 0.00 0.00 0.00 75 1015.3
20260506152529 14 155 14.5 24.1 0.00 0.00 0.00 75 1015.4
20260506151526 14 144 14.5 25.7 0.00 0.00 0.00 75 1015.4
20260506150524 14 152 14.5 24.1 0.00 0.00 0.00 74 1015.4
20260506145520 15 150 14.5 25.7 0.00 0.00 0.00 73 1015.5
20260506144517 15 163 14.5 25.7 0.00 0.00 0.00 73 1015.5